HATRANCH Weather Reports


Display with metric or nautical units.
time (UTC)temp
F
wind
direction
speed
MPH
gust
MPH
rain 1hr
in
rain 24hr
in
rain mn
in
humidity
%
barometer
mb
20260507061529 46 346 1.0 2.0 0.00 0.00 0.00 42 1022.5
20260507060031 48 48 0.0 1.0 0.00 0.00 0.00 39 1022.4
20260507054505 50 48 1.0 3.0 0.00 0.00 0.00 36 1022.2
20260507053015 51 22 2.0 4.0 0.00 0.00 0.00 36 1022.3
20260507051528 48 21 2.0 3.0 0.00 0.00 0.00 40 1022.1
20260507050033 44 34 2.0 3.0 0.00 0.00 0.00 45 1022.0
20260507044541 42 34 1.0 3.0 0.00 0.00 0.00 47 1022.0
20260507043010 42 34 1.0 2.0 0.00 0.00 0.00 47 1022.0
20260507041516 43 35 2.0 3.0 0.00 0.00 0.00 45 1021.8
20260507040023 44 47 2.0 3.0 0.00 0.00 0.00 44 1021.8
20260507034521 45 47 2.0 3.0 0.00 0.00 0.00 42 1021.7
20260507033028 47 47 1.0 3.0 0.00 0.00 0.00 41 1021.4
20260507031512 48 47 1.0 2.0 0.00 0.00 0.00 39 1021.2
20260507030018 50 47 1.0 2.0 0.00 0.00 0.00 36 1021.0
20260507024522 52 47 1.0 2.0 0.00 0.00 0.00 35 1020.8
20260507023026 56 76 1.0 2.0 0.00 0.00 0.00 31 1020.6
20260507021526 59 266 0.0 2.0 0.00 0.00 0.00 29 1020.5
20260507020014 60 266 1.0 3.0 0.00 0.00 0.00 27 1020.4
20260507014516 61 333 0.0 9.0 0.00 0.00 0.00 26 1020.4
20260507013025 62 284 2.0 5.0 0.00 0.00 0.00 25 1020.2
20260507011531 62 267 4.0 8.0 0.00 0.00 0.00 23 1020.1
20260507010028 64 106 1.0 6.0 0.00 0.00 0.00 22 1020.0
20260507004517 65 315 3.0 11.0 0.00 0.00 0.00 23 1019.9
20260507003022 65 20 3.0 9.0 0.00 0.00 0.00 21 1019.8
20260507001526 66 9 4.0 13.0 0.00 0.00 0.00 21 1019.7
20260507000029 65 56 3.0 18.0 0.00 0.00 0.00 22 1019.5
20260506234530 65 284 5.0 13.0 0.00 0.00 0.00 22 1019.5
20260506233020 65 350 4.0 11.0 0.00 0.00 0.00 24 1019.5
20260506231526 65 304 5.0 14.0 0.00 0.00 0.00 23 1019.4
20260506230030 66 327 6.0 12.0 0.00 0.00 0.00 23 1019.3
20260506224525 64 261 6.0 17.0 0.00 0.00 0.00 23 1019.3
20260506223017 65 290 9.0 18.0 0.00 0.00 0.00 22 1019.4
20260506221520 66 304 4.0 11.0 0.00 0.00 0.00 24 1019.6
20260506220005 65 15 5.0 14.0 0.00 0.00 0.00 22 1019.8
20260506214506 65 324 4.0 16.0 0.00 0.00 0.00 21 1019.9
20260506213014 63 317 10.0 16.0 0.00 0.00 0.00 25 1020.0
20260506211512 63 14 4.0 19.0 0.00 0.00 0.00 24 1020.0
20260506210005 63 315 6.0 12.0 0.00 0.00 0.00 28 1020.0
20260506204508 63 313 6.0 12.0 0.00 0.00 0.00 29 1020.1
20260506203010 64 311 5.0 13.0 0.00 0.00 0.00 29 1020.3
20260506201509 63 306 6.0 15.0 0.00 0.00 0.00 29 1020.3
20260506200010 62 350 5.0 14.0 0.00 0.00 0.00 32 1020.3
20260506194507 61 331 4.0 10.0 0.00 0.00 0.00 32 1020.4
20260506193014 59 16 4.0 12.0 0.00 0.00 0.00 33 1020.4
20260506191512 59 293 5.0 16.0 0.00 0.00 0.00 33 1020.4
20260506190010 59 24 4.0 11.0 0.00 0.00 0.00 33 1020.7
20260506184511 59 37 4.0 10.0 0.00 0.00 0.00 35 1020.7
20260506183008 57 236 6.0 14.0 0.00 0.00 0.00 36 1020.8
20260506181512 57 291 2.0 13.0 0.00 0.00 0.00 35 1020.8
20260506180013 57 314 6.0 16.0 0.00 0.00 0.00 36 1020.9
20260506174513 56 236 4.0 12.0 0.00 0.00 0.00 35 1020.9
20260506173008 55 258 3.0 12.0 0.00 0.00 0.00 37 1020.9
20260506171509 54 325 5.0 12.0 0.00 0.00 0.00 37 1020.8
20260506170016 54 324 5.0 10.0 0.00 0.00 0.00 36 1020.7
20260506164514 52 237 4.0 8.0 0.00 0.00 0.00 38 1020.5
20260506163029 52 267 3.0 9.0 0.00 0.00 0.00 40 1020.6
20260506161510 51 311 3.0 13.0 0.00 0.00 0.00 41 1020.6
20260506160017 51 330 4.0 8.0 0.00 0.00 0.00 41 1020.5
20260506154522 50 250 5.0 8.0 0.00 0.00 0.00 43 1020.3
20260506153016 49 298 6.0 11.0 0.00 0.00 0.00 44 1020.3
20260506151518 48 298 5.0 9.0 0.00 0.00 0.00 46 1020.2
20260506150018 48 304 2.0 9.0 0.00 0.00 0.00 49 1019.9
20260506144516 47 306 3.0 8.0 0.00 0.00 0.00 51 1019.9
20260506143018 45 297 3.0 5.0 0.00 0.00 0.00 51 1019.8
20260506141522 43 338 0.0 3.0 0.00 0.00 0.00 60 1019.9
20260506140020 37 32 0.0 2.0 0.00 0.00 0.00 73 1019.7
20260506134515 32 32 1.0 2.0 0.00 0.00 0.00 78 1019.5
20260506133021 0 0.0 0.0 0.00 0.00 0.00 1019.3
20260506131520 0 0.0 0.0 0.00 0.00 0.00 1019.3
20260506130022 0 0.0 0.0 0.00 0.00 0.00 1019.1
20260506124524 0 0.0 0.0 0.00 0.00 0.00 1018.8
20260506123023 0 0.0 0.0 0.00 0.00 0.00 1018.6
20260506121523 0 0.0 0.0 0.00 0.00 0.00 1018.6
20260506120030 0 0.0 0.0 0.00 0.00 0.00 1018.7
20260506114526 0 0.0 0.0 0.00 0.00 0.00 1018.5
20260506113024 0 0.0 0.0 0.00 0.00 0.00 1018.5
20260506111527 0 0.0 0.0 0.00 0.00 0.00 1018.5
20260506110027 0 0.0 0.0 0.00 0.00 0.00 1018.5
20260506104526 0 0.0 0.0 0.00 0.00 0.00 1018.4
20260506103027 0 0.0 0.0 0.00 0.00 0.00 1018.1
20260506101529 0 0.0 0.0 0.00 0.00 0.00 1018.0
20260506100027 0 0.0 0.0 0.00 0.00 0.00 1017.8
20260506094514 28 32 1.0 3.0 0.00 0.00 0.00 79 1017.8
20260506093028 28 32 2.0 4.0 0.00 0.00 0.00 79 1017.7
20260506091528 28 32 2.0 3.0 0.00 0.00 0.00 78 1017.8
20260506090025 28 32 1.0 2.0 0.00 0.00 0.00 77 1017.7
20260506084528 29 32 3.0 3.0 0.00 0.00 0.00 76 1017.8
20260506083025 29 32 2.0 3.0 0.00 0.00 0.00 76 1017.9
20260506081519 29 32 2.0 3.0 0.00 0.00 0.00 75 1018.0
20260506073028 30 28 2.0 2.0 0.00 0.00 0.00 73 1018.2
20260506071529 30 28 2.0 4.0 0.00 0.00 0.00 73 1018.1